Content
SEND FEEDBACK

Daily
Averages
Monthly
Summary
Switzerland

GENEVA, SWITZERLAND


Home > Europe > Switzerland
Elevation: 415 meters     Latitude: 46 15N     Longitude: 006 08E

WEATHER
 
SELECT A DAY
Number of Records: 305,246;   Date Range: 7/1/96 - 7/7/14
 
SHARE

PRINT THIS DATA

[ ← Previous Day ]
WEATHER ALMANAC - 17 FEBRUARY, 2013
[ Next Day → ]
[ °F ]   °C
Weather ElementAverageHighLow
Temperature2.1 °C4 °C (1:50 pm)0 °C (11:50 pm)
Dewpoint-2.1 °C0 °C (5:20 am)-3.3 °C (12:00 pm)
Humidity72 %93 % (5:20 am)51 % (5:00 pm)
Barometer1019.3 hPa1023.4 hPa (1:00 am)1017.3 hPa (3:20 pm)
Wind Speed10.9 km/h22.2 km/h (6:50 am)
Weather ElementAverage
Visibility10.5 km
Wind DirectionNE (44.4 °)

Weather ElementTotal
Precipitation---
Heating Degree Days16.3 (Base 18.3)
Averaged from 62 records on 17 February, 2013
WEATHER CONDITIONS BREAKOUT
WIND DIRECTION BREAKOUT
WEATHER BY HOUR - 17 FEBRUARY, 2013
[ °F ]   °C
Local TimeTemperatureDewpointHumidityBarometerVisibilityWind DirectionWind SpeedGust SpeedPrecipitationEventsConditions
12:20 AM1 °C-1 °C87 %1021 hPa10 kmCalmMostly Cloudy
12:50 AM1 °C-1 °C87 %1021 hPa10 kmVariable1.9 km/hMostly Cloudy
1:00 AM0.6 °C-1.7 °C81 %1023.4 hPa14.5 kmNNW (330°)1.9 km/hMist
1:20 AM1 °C-1 °C87 %1021 hPa10 kmCalmMostly Cloudy
1:50 AM1 °C-1 °C87 %1020 hPa10 kmCalmMostly Cloudy
2:00 AM0.6 °C-1.1 °C82 %1023 hPaNorth1.9 km/h
2:50 AM1 °C-1 °C87 %1020 hPa10 kmCalmMostly Cloudy
3:00 AM1.1 °C-1.1 °C80 %1022.4 hPaNorth (10°)1.9 km/h
3:20 AM1 °C-1 °C87 %1020 hPa10 kmVariable3.7 km/hMostly Cloudy
3:50 AM1 °C-1 °C87 %1020 hPa10 kmNE (50°)3.7 km/hMostly Cloudy
4:20 AM1 °C-1 °C87 %1020 hPa10 kmENE (60°)1.9 km/hMostly Cloudy
4:50 AM1 °C-1 °C87 %1020 hPa10 kmNorth (350°)1.9 km/hMostly Cloudy
5:00 AM1.1 °C-0.6 °C82 %1022 hPaNorth3.7 km/h
5:20 AM1 °C0 °C93 %1020 hPa10 kmNNE (20°)1.9 km/hMostly Cloudy
5:50 AM1 °C-1 °C87 %1019 hPa10 kmNE (40°)11.1 km/hMostly Cloudy
6:00 AM1.7 °C-1.1 °C74 %1022 hPaNE (50°)16.7 km/h
6:20 AM2 °C-1 °C81 %1020 hPa10 kmNE (50°)18.5 km/hMostly Cloudy
6:50 AM2 °C-1 °C81 %1020 hPa10 kmNE (50°)22.2 km/hMostly Cloudy
7:00 AM1.7 °C-1.7 °C72 %1022 hPa11.3 kmNE (40°)22.2 km/hMist
7:20 AM1 °C-1 °C87 %1020 hPa9 kmNE (40°)14.8 km/hMostly Cloudy
7:50 AM1 °C-1 °C87 %1020 hPa10 kmNE (40°)13 km/hMostly Cloudy
8:00 AM1.1 °C-2.2 °C72 %1022 hPaNE (40°)16.7 km/h
9:20 AM2 °C-1 °C81 %1020 hPa10 kmNE (50°)13 km/hMostly Cloudy
9:50 AM2 °C-2 °C75 %1020 hPa10 kmENE (70°)13 km/hMostly Cloudy
10:50 AM2 °C-3 °C70 %1020 hPa10 kmENE (60°)14.8 km/hMostly Cloudy
11:00 AM2.2 °C-2.8 °C59 %1021.7 hPaNE (50°)14.8 km/h
11:20 AM3 °C-3 °C65 %1019 hPa10 kmENE (60°)13 km/hMostly Cloudy
11:50 AM3 °C-3 °C65 %1019 hPa10 kmNE (40°)16.7 km/hMostly Cloudy
12:00 PM2.8 °C-3.3 °C53 %1021.7 hPaNE (40°)13 km/h
12:20 PM3 °C-2 °C70 %1019 hPa10 kmNE (50°)14.8 km/hMostly Cloudy
12:50 PM3 °C-2 °C70 %1019 hPa10 kmNNE (20°)13 km/hMostly Cloudy
1:00 PM2.8 °C-2.8 °C55 %1020.7 hPa17.7 kmNNE (30°)16.7 km/h
1:20 PM3 °C-2 °C70 %1019 hPa10 kmNE (50°)16.7 km/hMostly Cloudy
1:50 PM4 °C-3 °C61 %1017.9 hPa10 kmNE (50°)16.7 km/hScattered Clouds
2:00 PM3.3 °C-2.8 °C52 %1020.3 hPaNE (50°)22.2 km/h
2:20 PM4 °C-3 °C61 %1017.9 hPa10 kmNE (50°)16.7 km/hScattered Clouds
2:50 PM4 °C-2 °C65 %1017.9 hPa10 kmNE (50°)18.5 km/hPartly Cloudy
3:00 PM3.3 °C-2.8 °C54 %1019.3 hPaNNE (30°)18.5 km/h
3:20 PM4 °C-3 °C61 %1017.3 hPa10 kmNE (50°)16.7 km/hPartly Cloudy
3:50 PM4 °C-2 °C65 %1017.3 hPa10 kmNE (40°)16.7 km/hPartly Cloudy
4:20 PM4 °C-2 °C65 %1017.3 hPa10 kmNE (40°)13 km/hPartly Cloudy
4:50 PM4 °C-3 °C61 %1017.3 hPa10 kmNNE (30°)14.8 km/hScattered Clouds
5:00 PM3.3 °C-3.3 °C51 %1019 hPaNE (40°)18.5 km/h
5:20 PM3 °C-2 °C70 %1017.3 hPa10 kmNNE (30°)13 km/hMostly Cloudy
5:50 PM3 °C-2 °C70 %1017.3 hPa10 kmNNE (20°)11.1 km/hMostly Cloudy
6:00 PM2.8 °C-2.2 °C59 %1019 hPaNNE (20°)11.1 km/h
6:20 PM3 °C-2 °C70 %1017.3 hPa10 kmNNE (20°)11.1 km/hMostly Cloudy
6:50 PM2 °C-2 °C75 %1017.3 hPa10 kmNorth (10°)9.3 km/hMostly Cloudy
7:00 PM2.2 °C-2.8 °C58 %1019.3 hPa19.3 kmNorth (10°)11.1 km/hMostly Cloudy
7:20 PM2 °C-3 °C70 %1017.3 hPa10 kmNorth (10°)7.4 km/hMostly Cloudy
7:50 PM2 °C-3 °C70 %1017.3 hPa10 kmNorth (10°)9.3 km/hMostly Cloudy
8:00 PM2.2 °C-3.3 °C57 %1019.6 hPaNorth (10°)9.3 km/h
8:20 PM2 °C-3 °C70 %1017.3 hPa10 kmNorth (360°)9.3 km/hMostly Cloudy
8:50 PM2 °C-3 °C70 %1017.3 hPa10 kmNorth (10°)9.3 km/hMostly Cloudy
9:00 PM2.2 °C-2.8 °C58 %1019.3 hPaNorth (10°)11.1 km/h
9:20 PM2 °C-3 °C70 %1017.3 hPa10 kmNNE (20°)11.1 km/hMostly Cloudy
9:50 PM2 °C-3 °C70 %1017.3 hPa10 kmNNE (20°)13 km/hMostly Cloudy
10:20 PM2 °C-3 °C70 %1017.3 hPa10 kmNNE (20°)11.1 km/hMostly Cloudy
10:50 PM2 °C-3 °C70 %1017.3 hPa10 kmNNE (20°)7.4 km/hMostly Cloudy
11:00 PM1.7 °C-3.3 °C60 %1019.6 hPaNNE (20°)7.4 km/h
11:20 PM1 °C-3 °C75 %1017.3 hPa10 kmNorth (10°)7.4 km/hScattered Clouds
11:50 PM0 °C-3 °C80 %1017.3 hPa10 kmVariable5.6 km/hScattered Clouds
Hourly data recorded from LSGG, located 0 kilometers away from Geneva, Switzerland







STORIES FROM OUR PARTNERS